Location: Fernhill
(41.0167°S, 175.6333°E)
Time: 14:59:43
(UTC+00:00)

Meteor 2-6 Rocket - Pass Details

Date: 24 February 2026
Orbit: 804 x 913 km, 81.3° (Epoch: 7 March)

Event Time Altitude Azimuth Distance (km) Brightness Sun altitude
Exits shadow 10:01:55 40° 312° (NW) 1,289 5.1 -29.1°
Maximum altitude 10:03:45 57° 257° (WSW) 1,060 4.8 -29.3°
Drops below altitude 10° 10:09:39 10° 178° (S) 2,625 7.3 -30.1°
Sets 10:12:13 0° 174° (S) 3,580 8.0 -30.4°
